Location: Blanot
(47.1713°N, 4.2340°E)
Time: 03:22:20
(UTC+00:00)

Spot 4 Rocket - Pass Details

Date: 14 July 2020
Orbit: 777 x 781 km, 98.7° (Epoch: 06 August)

Event Time Altitude Azimuth Distance (km) Brightness Sun altitude
Rises 03:02:37 0° 13° (NNE) 3,274 8.4 -8.6°
Reaches altitude 10° 03:04:56 10° 13° (NNE) 2,342 7.5 -8.3°
Maximum altitude 03:10:07 84° 286° (WNW) 790 4.1 -7.7°
Drops below altitude 10° 03:15:16 10° 199° (SSW) 2,327 6.0 -7.0°
Enters shadow 03:16:29 - 199° (SSW) 2,817 6.4 -6.9°
